Regional Weather Roundup
Issued by NWS

Current Version | Previous Version | Text Only | Print | Product List | Glossary On
Versions: 1 2 3 4 5 6 7 8 9 10 11 12 13 14 15 16 17 18 19 20 21 22 23 24 25 26 27 28 29 30 31 32 33 34 35 36 37 38 39 40 41 42 43 44 45 46 47 48 49 50
000
ASUS46 KSTO 211015
RWRCA

NORTHERN AND CENTRAL CA REGIONAL WEATHER ROUNDUP
NATIONAL WEATHER SERVICE SACRAMENTO CA
300 AM PDT WED OCT 21 2020

NOTE: FAIR INDICATES FEW OR NO CLOUDS BELOW 12,000 FEET WITH NO
SIGNIFICANT WEATHER AND/OR OBSTRUCTIONS TO VISIBILITY.

CAZ001-003-211100-
NORTHWEST AREA

CITY           SKY/WX    TMP DP  RH WIND       PRES   REMARKS
CRESCENT CITY  CLEAR     52  48  86 N9        30.03S
UKIAH          CLEAR     53  45  74 CALM      29.88R
$$

CAZ006-505>513-211100-
BAY AREA

CITY           SKY/WX    TMP DP  RH WIND       PRES   REMARKS
SANTA ROSA     CLEAR     51  46  83 CALM      29.84S
SAN RAFAEL     N/A       MM  MM  MM MISG
NAPA           CLEAR     51  47  86 CALM      29.83S
CONCORD        CLEAR     59  46  62 CALM      29.82F
OAKLAND CITY   N/A       60  MM  MM MISG
OAKLAND        CLEAR     58  53  84 CALM      29.84S
SAN FRAN CITY  N/A       57  MM  79 MISG
SAN FRAN ARPT  CLEAR     58  49  72 CALM      29.82F
LIVERMORE      CLEAR     58  40  51 CALM      29.84S
HAYWARD        CLEAR     60  44  55 E3        29.83F
REDWOOD CITY   N/A       56  MM  80 MISG
MOFFETT ARPT   CLEAR     57  52  82 CALM      29.84S
SAN JOSE ARPT  CLEAR     61  48  62 CALM      29.84S
$$
CAZ034-037-514>518-211100-
CENTRAL COAST

CITY           SKY/WX    TMP DP  RH WIND       PRES   REMARKS
WATSONVILLE    FOG       51  50  96 CALM      29.85S VSB 1/4
SALINAS        FOG       51  50  96 CALM      29.85S VSB 1/4
MONTEREY       CLEAR     52  49  89 CALM      29.84F
SAN LUIS OBISP FOG       54  54 100 CALM      29.83F VSB 1/2
SANTA MARIA    FOG       56  54  93 CALM      29.84F VSB 1/2
HALF MOON BAY  CLOUDY    46  45  93 CALM      29.84F
$$
CAZ015-016-211100-
NORTHERN SACRAMENTO VALLEY

CITY           SKY/WX    TMP DP  RH WIND       PRES   REMARKS
REDDING        CLEAR     75  42  30 NW7       29.86S
RED BLUFF      CLEAR     75  41  29 N13       29.84S
OROVILLE       CLEAR     59  40  49 CALM      29.82F
$$
CAZ016>018-211100-
SOUTHERN SACRAMENTO VALLEY

CITY           SKY/WX    TMP DP  RH WIND       PRES   REMARKS
AUBURN         CLEAR     64  39  39 E7        29.87S
BEALE AFB      CLEAR     55  42  61 NW6       29.80R
LINCOLN        FAIR      54  41  62 CALM      29.80S
MARYSVILLE     CLEAR     54  43  66 CALM      29.82R
SAC INTL ARPT  CLEAR     57  47  69 CALM      29.80S
MATHER AIRPORT NOT AVBL
DOWNTOWN SAC   N/A       62  MM  MM MISG
SAC EXEC ARPT  CLEAR     57  48  72 CALM      29.80S
VACAVILLE      CLEAR     63  44  50 CALM      29.82R
TRAVIS AFB     CLEAR     60  50  69 CALM      29.81R
$$
CAZ019>021-211100-
SAN JOAQUIN VALLEY

CITY           SKY/WX    TMP DP  RH WIND       PRES   REMARKS
STOCKTON       CLEAR     57  44  62 CALM      29.81S
MODESTO        CLEAR     56  50  80 CALM      29.80F
MERCED         CLEAR     53  45  74 E3        29.81S
LEMOORE        CLEAR     57  37  47 W6        29.82S
FRESNO         CLEAR     64  45  49 CALM      29.83S
HANFORD        CLEAR     54  51  90 CALM      29.83S
PORTERVILLE    CLEAR     58  48  69 CALM      29.84S
BAKERSFIELD    CLEAR     63  43  48 CALM      29.83S
$$
CAZ011-012-071-211100-
NORTHERN MOUNTAINS

CITY           SKY/WX    TMP DP  RH WIND       PRES   REMARKS
YREKA          CLEAR     47  38  71 CALM      30.08S
MOUNT SHASTA   CLEAR     56  43  61 MISG      30.04F
ALTURAS        CLEAR     36  33  89 CALM      30.10
$$
CAZ011-012-071-211100-
SIERRA NEVADA MTNS

CITY           SKY/WX    TMP DP  RH WIND       PRES   REMARKS
BLUE CANYON    CLEAR     65  22  19 N3        30.07S
TRUCKEE        CLEAR     34  25  69 CALM      30.13F
TAHOE VLY ARPT CLEAR     33  25  72 CALM      30.13F
MAMMOTH LAKES  FAIR      34  16  47 N3        30.19F
$$



USA.gov is the U.S. government's official web portal to all federal, state and local government web resources and services.